GW0774 Weather Reports


time (UTC)temp
F
wind
direction
speed
knots
gust
knots
rain 1hr
in
rain 24hr
in
rain mn
in
humidity
%
barometer
mb
20260510192039 49 101 7.8 18.2 0.00 0.00 0.00 72 1015.9
20260510191555 49 103 9.6 13.9 0.00 0.00 0.00 72 1015.9
20260510191039 49 95 9.6 13.9 0.00 0.00 0.00 72 1015.8
20260510190539 49 129 7.0 13.9 0.00 0.00 0.00 72 1015.7
20260510190051 49 95 9.6 16.5 0.00 0.00 0.00 72 1015.6
20260510185539 49 104 11.3 18.2 0.00 0.00 0.00 71 1015.5
20260510185039 49 119 9.6 18.2 0.00 0.00 0.00 73 1015.3
20260510184547 49 92 10.4 16.5 0.00 0.00 0.00 73 1015.3
20260510184043 49 111 7.8 13.0 0.00 0.00 0.00 75 1015.2
20260510183541 49 98 7.8 13.0 0.00 0.00 0.00 75 1015.1
20260510183049 49 105 7.8 13.9 0.00 0.00 0.00 76 1015.1
20260510182539 49 105 7.8 13.9 0.00 0.00 0.00 76 1015.0
20260510182039 49 92 8.7 13.9 0.00 0.00 0.00 75 1014.7
20260510181607 49 114 8.7 13.9 0.00 0.00 0.00 76 1014.7
20260510181044 49 94 7.0 13.9 0.00 0.00 0.00 77 1014.6
20260510180540 49 99 8.7 17.4 0.00 0.00 0.00 77 1014.6
20260510180107 49 115 9.6 17.4 0.00 0.00 0.00 77 1014.4
20260510175539 49 86 9.6 16.5 0.00 0.00 0.00 78 1014.3
20260510175040 49 82 7.0 11.3 0.00 0.00 0.00 79 1014.2
20260510174551 49 92 4.3 8.7 0.00 0.00 0.00 80 1014.1
20260510174039 49 105 5.2 10.4 0.00 0.00 0.00 79 1013.9
20260510173539 49 103 7.8 11.3 0.00 0.00 0.00 78 1013.9
20260510173051 49 103 7.8 11.3 0.00 0.00 0.00 79 1013.8
20260510172539 49 91 7.8 11.3 0.00 0.00 0.00 79 1013.8
20260510172040 49 115 6.1 11.3 0.00 0.00 0.00 79 1013.6
20260510171558 49 103 7.8 11.3 0.00 0.00 0.00 79 1013.6
20260510171039 49 88 5.2 10.4 0.00 0.00 0.00 80 1013.5
20260510170539 49 105 6.1 11.3 0.00 0.00 0.00 80 1013.4
20260510170050 49 100 6.1 11.3 0.00 0.00 0.00 80 1013.3
20260510165539 49 100 7.8 14.8 0.00 0.00 0.00 80 1013.2
20260510165038 49 110 9.6 14.8 0.00 0.00 0.00 80 1013.0
20260510164552 49 102 7.8 13.0 0.00 0.00 0.00 80 1012.9
20260510164040 49 94 6.1 10.4 0.00 0.00 0.00 81 1012.6
20260510163539 49 103 5.2 13.9 0.00 0.00 0.00 81 1012.5
20260510163049 49 108 6.1 13.9 0.00 0.00 0.00 82 1012.4
20260510162539 49 88 7.0 13.9 0.00 0.00 0.00 80 1012.4
20260510162038 49 121 7.8 14.8 0.00 0.00 0.00 79 1012.3
20260510161549 49 150 8.7 14.8 0.00 0.00 0.00 79 1012.2
20260510161039 49 109 10.4 15.6 0.00 0.00 0.00 80 1012.1
20260510160540 49 100 9.6 18.2 0.00 0.00 0.00 81 1012.0
20260510160046 49 96 9.6 19.1 0.00 0.00 0.00 82 1011.8
20260510155540 49 115 13.0 20.9 0.00 0.00 0.00 81 1011.7
20260510155040 49 84 13.0 21.7 0.00 0.00 0.00 80 1011.5
20260510154553 49 105 12.2 21.7 0.00 0.00 0.00 80 1011.4
20260510154040 49 157 12.2 21.7 0.00 0.00 0.00 80 1011.4
20260510153542 49 113 12.2 17.4 0.00 0.00 0.00 80 1011.2
20260510153052 49 128 10.4 17.4 0.00 0.00 0.00 79 1011.2
20260510152539 49 98 10.4 17.4 0.00 0.00 0.00 79 1011.1
20260510152040 50 59 10.4 17.4 0.00 0.00 0.00 78 1011.0
20260510151548 50 114 12.2 17.4 0.00 0.00 0.00 77 1010.9
20260510151039 50 71 9.6 16.5 0.00 0.00 0.00 78 1010.9
20260510150539 50 111 8.7 15.6 0.00 0.00 0.00 77 1010.8
20260510150118 49 110 8.7 15.6 0.00 0.00 0.00 78 1010.8
20260510145538 49 90 8.7 15.6 0.00 0.00 0.00 79 1010.8
20260510145039 49 89 10.4 16.5 0.00 0.00 0.00 80 1010.7
20260510144544 49 109 8.7 16.5 0.00 0.00 0.00 82 1010.6
20260510144040 50 85 10.4 15.6 0.00 0.00 0.00 82 1010.6
20260510143539 50 92 10.4 20.0 0.00 0.00 0.00 81 1010.4
20260510143049 50 98 11.3 20.0 0.00 0.00 0.00 80 1010.2
20260510142540 50 103 8.7 18.2 0.00 0.00 0.00 79 1010.1
20260510142039 50 107 8.7 13.9 0.00 0.00 0.00 79 1010.1
20260510141551 50 100 7.8 12.2 0.00 0.00 0.00 78 1010.0
20260510141041 50 116 6.1 12.2 0.00 0.00 0.00 78 1009.8
20260510140538 50 106 7.0 11.3 0.00 0.00 0.00 78 1009.7
20260510140048 50 107 6.1 12.2 0.00 0.00 0.00 79 1009.6
20260510135539 50 101 7.8 15.6 0.00 0.00 0.00 78 1009.5
20260510135040 50 89 7.8 15.6 0.00 0.00 0.00 78 1009.5
20260510134548 50 101 8.7 16.5 0.00 0.00 0.00 78 1009.4
20260510134045 50 104 10.4 16.5 0.00 0.00 0.00 78 1009.2
20260510133538 50 87 7.8 16.5 0.00 0.00 0.00 79 1009.3
20260510133047 50 101 7.8 18.2 0.00 0.00 0.00 80 1009.3
20260510132540 50 92 11.3 19.1 0.00 0.00 0.00 80 1009.2
20260510132040 50 102 12.2 19.1 0.00 0.00 0.00 80 1009.1
20260510131545 50 107 10.4 21.7 0.00 0.00 0.00 81 1009.0
20260510131040 50 86 12.2 21.7 0.00 0.00 0.00 81 1009.0
20260510130539 50 88 13.0 21.7 0.00 0.00 0.00 81 1008.9
20260510130044 50 98 11.3 19.1 0.00 0.00 0.00 81 1008.8
20260510125538 50 111 10.4 20.0 0.00 0.00 0.00 81 1008.5
20260510125039 50 87 12.2 20.0 0.00 0.00 0.00 81 1008.6
20260510124553 50 92 10.4 18.2 0.00 0.00 0.00 81 1008.6
20260510124039 50 93 9.6 20.0 0.00 0.00 0.00 80 1008.3
20260510123539 50 101 11.3 20.0 0.00 0.00 0.00 80 1008.2
20260510123047 50 83 12.2 20.0 0.00 0.00 0.00 81 1008.2
20260510122539 50 122 13.9 20.0 0.00 0.00 0.00 80 1007.9
20260510122039 51 147 13.0 20.0 0.00 0.00 0.00 80 1007.8
20260510121546 51 91 12.2 20.0 0.00 0.00 0.00 80 1007.7
20260510121039 51 106 11.3 20.0 0.00 0.00 0.00 80 1007.6
20260510120542 51 86 13.9 20.0 0.00 0.00 0.00 80 1007.4
20260510120044 51 74 14.8 20.0 0.00 0.00 0.00 81 1007.3
20260510115539 51 88 11.3 23.5 0.00 0.00 0.00 81 1007.3
20260510115039 51 84 12.2 24.3 0.00 0.00 0.00 80 1007.2
20260510114551 51 71 13.0 24.3 0.00 0.00 0.00 81 1007.1
20260510114040 51 78 12.2 19.1 0.00 0.00 0.00 81 1007.1
20260510113539 51 86 10.4 17.4 0.00 0.00 0.00 81 1007.1
20260510113041 51 95 10.4 17.4 0.00 0.00 0.00 81 1006.9
20260510112543 51 94 9.6 18.2 0.00 0.00 0.00 81 1006.8
20260510112039 51 105 10.4 18.2 0.00 0.00 0.00 81 1006.7
20260510111558 51 92 11.3 16.5 0.00 0.00 0.00 81 1006.6
20260510111039 51 92 11.3 16.5 0.00 0.00 0.00 81 1006.5
20260510110539 51 106 11.3 16.5 0.00 0.00 0.00 82 1006.8
20260510110048 51 78 10.4 19.1 0.00 0.00 0.00 83 1006.6
20260510105540 51 92 11.3 19.1 0.00 0.00 0.00 83 1006.4
20260510105039 51 89 10.4 19.1 0.00 0.00 0.00 83 1006.3
20260510104551 51 89 12.2 19.1 0.00 0.00 0.00 84 1006.2
20260510104038 52 90 11.3 18.2 0.00 0.00 0.00 83 1006.1
20260510103613 52 147 8.7 18.2 0.00 0.00 0.00 83 1006.1
20260510103054 52 128 12.2 18.2 0.00 0.00 0.00 83 1006.1
20260510102539 52 62 8.7 15.6 0.00 0.00 0.00 85 1005.7
20260510102042 53 101 10.4 15.6 0.00 0.00 0.00 85 1005.5
20260510101547 53 99 8.7 14.8 0.00 0.00 0.00 84 1005.5
20260510101039 53 82 8.7 12.2 0.00 0.00 0.00 83 1005.4
20260510100539 53 90 7.8 11.3 0.00 0.00 0.00 83 1005.3
20260510100051 53 102 6.1 11.3 0.00 0.00 0.00 84 1005.3
20260510095540 53 105 7.8 11.3 0.00 0.00 0.00 84 1005.3
20260510095038 53 107 6.1 9.6 0.00 0.00 0.00 84 1005.1
20260510094556 53 88 5.2 9.6 0.00 0.00 0.00 85 1005.0
20260510094038 53 94 5.2 9.6 0.00 0.00 0.00 84 1004.9
20260510093539 54 101 4.3 10.4 0.00 0.00 0.00 84 1005.0
20260510093050 54 90 7.0 10.4 0.00 0.00 0.00 84 1004.9
20260510092540 53 100 7.0 10.4 0.00 0.00 0.00 84 1004.9
20260510092042 53 101 3.5 8.7 0.00 0.00 0.00 84 1004.8
20260510091550 53 108 6.1 10.4 0.00 0.00 0.00 85 1004.7
20260510091039 53 93 5.2 10.4 0.00 0.00 0.00 85 1004.5
20260510090539 53 93 6.1 10.4 0.00 0.00 0.00 85 1004.4
20260510090049 53 98 7.0 10.4 0.00 0.00 0.00 85 1004.4
20260510085539 53 104 6.1 8.7 0.00 0.00 0.00 85 1004.2
20260510085043 54 98 3.5 7.8 0.00 0.00 0.00 86 1004.2
20260510084548 54 98 5.2 7.8 0.00 0.00 0.00 86 1004.0
20260510084039 54 96 2.6 7.8 0.00 0.00 0.00 86 1003.9
20260510083539 54 98 4.3 7.8 0.00 0.00 0.00 87 1003.8
20260510083058 54 95 4.3 7.8 0.00 0.00 0.00 87 1003.7
20260510082538 54 103 4.3 7.0 0.00 0.00 0.00 88 1003.6
20260510082038 54 91 2.6 7.0 0.00 0.00 0.00 88 1003.5
20260510081547 54 103 2.6 7.0 0.00 0.00 0.00 89 1003.4
20260510081039 54 96 2.6 7.0 0.00 0.00 0.00 89 1003.4
20260510080543 55 106 2.6 9.6 0.00 0.00 0.00 88 1003.2
20260510080045 55 103 3.5 10.4 0.00 0.00 0.00 89 1003.1
20260510075539 55 106 7.0 10.4 0.00 0.00 0.00 90 1003.0
20260510075039 55 103 5.2 7.0 0.00 0.00 0.00 93 1003.0
20260510074549 55 92 3.5 6.1 0.00 0.00 0.00 94 1002.8
20260510074039 55 112 2.6 5.2 0.00 0.00 0.00 94 1002.7
20260510073539 55 91 0.9 3.5 0.00 0.00 0.00 93 1002.5
20260510073054 55 309 0.0 2.6 0.00 0.00 0.00 92 1002.5
20260510072539 55 309 0.9 2.6 0.00 0.00 0.00 93 1002.4
20260510072039 56 309 0.9 14.8 0.00 0.00 0.00 93 1002.3
20260510071549 55 0 5.2 14.8 0.00 0.00 0.00 94 1002.0
20260510071038 55 248 2.6 4.3 0.00 0.00 0.00 92 1001.9
20260510070538 55 0 0.0 0.9 0.00 0.00 0.00 92 1001.6
20260510070049 55 248 0.0 0.9 0.00 0.00 0.00 92 1001.4
20260510065542 55 248 0.0 0.9 0.00 0.00 0.00 92 1001.2
20260510065039 55 0 0.0 1.7 0.00 0.00 0.00 92 1001.2
20260510064551 56 0 0.0 1.7 0.00 0.00 0.00 92 1001.2
20260510064039 56 0 0.0 1.7 0.00 0.00 0.00 91 1001.1
20260510063539 56 0 0.0 1.7 0.00 0.00 0.00 91 1001.1
20260510063048 56 0 0.0 1.7 0.00 0.00 0.00 90 1001.1
20260510062542 56 96 0.0 1.7 0.00 0.00 0.00 90 1001.1
20260510062039 56 296 0.0 0.9 0.00 0.00 0.00 90 1001.0
20260510061548 57 0 0.0 0.9 0.00 0.00 0.00 89 1000.9
20260510061039 57 296 0.0 2.6 0.00 0.00 0.00 89 1000.8
20260510060540 57 0 0.0 6.1 0.00 0.00 0.00 89 1000.8
20260510060047 58 295 1.7 7.0 0.00 0.00 0.00 89 1000.9
20260510055539 58 288 2.6 7.0 0.00 0.00 0.00 89 1000.7
20260510055041 58 314 4.3 7.0 0.00 0.00 0.00 89 1000.7
20260510054549 58 273 2.6 7.0 0.00 0.00 0.00 88 1000.7
20260510054038 59 263 2.6 7.8 0.00 0.00 0.00 88 1000.7
20260510053539 59 238 3.5 7.8 0.00 0.00 0.00 88 1000.4
20260510053047 59 241 3.5 6.1 0.00 0.00 0.00 88 1000.5
20260510052539 59 279 2.6 6.1 0.00 0.00 0.00 88 1000.5
20260510052040 59 235 2.6 7.8 0.00 0.00 0.00 87 1000.4
20260510051557 59 253 3.5 7.8 0.00 0.00 0.00 87 1000.3
20260510051037 59 250 5.2 13.0 0.00 0.00 0.00 87 1000.3
20260510050539 60 250 7.0 13.0 0.00 0.00 0.00 87 1000.1
20260510050048 60 252 5.2 13.0 0.00 0.00 0.00 86 1000.0
20260510045539 60 232 6.1 12.2 0.00 0.00 0.00 86 999.9
20260510045038 60 247 5.2 11.3 0.00 0.00 0.00 86 999.9
20260510044547 60 240 6.1 10.4 0.00 0.00 0.00 86 999.7
20260510044039 60 286 5.2 13.0 0.00 0.00 0.00 86 999.7
20260510043539 60 283 6.1 13.0 0.00 0.00 0.00 85 999.5
20260510043050 60 261 5.2 13.0 0.00 0.00 0.00 85 999.3
20260510042540 61 298 6.1 13.9 0.00 0.00 0.00 84 999.2
20260510042039 61 313 5.2 13.9 0.00 0.00 0.00 84 999.4
20260510041547 61 281 6.1 13.0 0.00 0.00 0.00 84 999.3
20260510041039 61 252 7.0 13.0 0.00 0.00 0.00 84 999.4
20260510040539 61 294 7.8 15.6 0.00 0.00 0.00 84 999.3
20260510040051 61 263 9.6 15.6 0.00 0.00 0.00 83 999.2
20260510035538 61 349 7.8 15.6 0.00 0.00 0.00 84 999.1
20260510035038 61 271 7.0 16.5 0.00 0.00 0.00 84 999.2
20260510034547 61 271 8.7 16.5 0.00 0.00 0.00 84 999.0
20260510034040 61 254 7.8 17.4 0.00 0.00 0.00 83 999.2
20260510033538 61 239 7.8 17.4 0.00 0.00 0.00 83 999.1
20260510033047 61 238 7.8 16.5 0.00 0.00 0.00 84 999.0
20260510032541 61 248 8.7 20.0 0.00 0.00 0.00 83 998.9
20260510032039 61 250 8.7 20.0 0.00 0.00 0.00 83 998.8
20260510031550 61 309 9.6 19.1 0.00 0.00 0.00 83 998.8
20260510031038 61 278 10.4 21.7 0.00 0.00 0.00 84 998.8
20260510030538 61 251 7.8 21.7 0.00 0.00 0.00 84 998.8
20260510030100 61 271 8.7 15.6 0.00 0.00 0.00 83 998.7
20260510025539 61 252 8.7 15.6 0.00 0.00 0.00 83 998.9
20260510025039 61 265 7.8 14.8 0.00 0.00 0.00 85 998.9
20260510024547 61 260 10.4 14.8 0.00 0.00 0.00 83 998.9
20260510024039 61 269 7.8 17.4 0.00 0.00 0.00 84 998.7
20260510023539 61 245 8.7 20.0 0.00 0.00 0.00 84 998.6
20260510023047 61 228 10.4 20.9 0.00 0.00 0.00 83 998.5
20260510022542 61 338 9.6 21.7 0.00 0.00 0.00 83 998.5
20260510022039 62 299 12.2 23.5 0.00 0.00 0.00 81 998.5
20260510021545 62 295 13.0 23.5 0.00 0.00 0.00 82 998.4
20260510021039 62 305 8.7 26.1 0.00 0.00 0.00 84 998.3
20260510020542 61 259 13.0 26.1 0.00 0.00 0.00 83 998.1
20260510020051 61 311 10.4 20.0 0.00 0.00 0.00 84 998.1
20260510015538 61 234 10.4 20.0 0.00 0.20 0.00 83 998.1
20260510015039 61 242 11.3 20.0 0.00 0.20 0.00 82 998.1
20260510014547 62 336 12.2 21.7 0.00 0.20 0.00 82 998.0
20260510014039 62 252 11.3 21.7 0.00 0.20 0.00 82 997.9
20260510013540 61 259 12.2 21.7 0.00 0.20 0.00 80 997.9
20260510013046 62 241 9.6 29.5 0.00 0.20 0.00 83 998.3
20260510012542 61 271 11.3 29.5 0.00 0.20 0.00 82 998.2
20260510012039 62 327 9.6 21.7 0.00 0.20 0.00 82 998.2
20260510011550 62 255 12.2 21.7 0.00 0.20 0.00 82 998.3
20260510011039 62 249 13.9 22.6 0.00 0.20 0.00 81 998.2
20260510010539 62 248 9.6 22.6 0.00 0.20 0.00 81 998.1
20260510010044 62 280 12.2 23.5 0.00 0.20 0.00 80 998.1
20260510005539 62 244 12.2 23.5 0.00 0.21 0.00 80 998.1
20260510005039 62 255 10.4 24.3 0.00 0.21 0.00 80 998.2
20260510004552 62 234 11.3 25.2 0.00 0.21 0.00 82 998.2
20260510004039 62 294 11.3 25.2 0.00 0.21 0.00 82 998.1
20260510003540 61 279 13.0 21.7 0.00 0.21 0.00 82 998.3
20260510003047 61 287 10.4 21.7 0.00 0.21 0.00 83 998.3
20260510002538 61 275 8.7 21.7 0.00 0.21 0.00 84 998.3
20260510002039 61 254 12.2 22.6 0.00 0.21 0.00 83 998.3
20260510001556 61 262 14.8 22.6 0.00 0.21 0.00 82 998.4
20260510001039 61 288 9.6 17.4 0.00 0.21 0.00 82 998.6
20260510000541 61 294 8.7 22.6 0.00 0.21 0.00 82 998.7
20260510000048 61 285 13.0 22.6 0.00 0.21 0.00 82 998.7
20260509235539 61 274 9.6 19.1 0.00 0.21 0.00 82 998.7
20260509235039 61 221 12.2 21.7 0.00 0.21 0.00 82 998.7
20260509234549 61 269 11.3 21.7 0.00 0.21 0.00 83 998.8
20260509234043 62 254 8.7 20.9 0.00 0.21 0.00 83 998.6
20260509233544 61 286 10.4 24.3 0.00 0.21 0.00 83 998.9
20260509233049 61 290 11.3 24.3 0.00 0.21 0.00 84 999.1
20260509232542 61 283 11.3 23.5 0.00 0.21 0.00 84 999.1
20260509232039 61 261 12.2 23.5 0.00 0.21 0.00 83 999.2
20260509231548 61 267 9.6 21.7 0.00 0.21 0.00 82 999.2
20260509231038 61 290 7.0 22.6 0.00 0.21 0.00 83 999.1
20260509230539 61 276 8.7 22.6 0.00 0.21 0.00 83 999.2
20260509230055 61 259 11.3 21.7 0.00 0.21 0.00 82 999.2
20260509225539 61 324 8.7 17.4 0.00 0.21 0.00 84 999.3
20260509225040 61 244 8.7 21.7 0.00 0.21 0.00 84 999.3
20260509224547 61 287 11.3 26.1 0.00 0.21 0.00 84 999.2
20260509224041 61 286 13.0 26.1 0.00 0.21 0.00 83 999.2
20260509223539 61 340 10.4 26.1 0.00 0.21 0.00 84 999.1
20260509223045 61 229 11.3 23.5 0.00 0.21 0.00 83 999.1
20260509222541 61 275 9.6 23.5 0.00 0.21 0.00 84 999.1
20260509222039 61 296 12.2 22.6 0.00 0.21 0.00 84 999.1
20260509221551 61 290 10.4 22.6 0.00 0.21 0.00 84 999.2
20260509221047 60 292 10.4 22.6 0.00 0.21 0.00 84 999.1
20260509220540 61 252 11.3 20.0 0.00 0.21 0.00 84 999.2
20260509220048 60 259 9.6 20.0 0.00 0.21 0.00 84 999.2
20260509215539 60 306 11.3 20.0 0.00 0.21 0.00 85 999.2
20260509215039 60 247 10.4 20.0 0.00 0.21 0.00 86 999.1
20260509214548 60 264 9.6 20.9 0.00 0.21 0.00 85 999.2
20260509214038 60 252 11.3 20.9 0.00 0.21 0.00 85 999.2
20260509213538 59 293 10.4 18.2 0.00 0.21 0.00 85 999.2
20260509213106 59 261 7.0 13.9 0.00 0.21 0.00 86 999.2
20260509212538 59 277 7.8 17.4 0.00 0.21 0.00 86 999.3
20260509212039 59 143 7.0 17.4 0.00 0.21 0.00 86 999.2
20260509211549 59 258 10.4 15.6 0.00 0.21 0.00 87 999.3
20260509211042 59 286 8.7 16.5 0.00 0.21 0.00 87 999.3
20260509210540 59 265 8.7 16.5 0.00 0.20 0.00 88 999.3
20260509205539 58 285 6.1 13.9 0.00 0.20 0.00 88 999.2
20260509205039 58 270 7.0 13.0 0.00 0.20 0.00 88 999.3
20260509204553 58 262 7.0 16.5 0.00 0.20 0.00 88 999.3
20260509204039 58 266 6.1 16.5 0.00 0.20 0.00 88 999.2
20260509203539 58 300 6.1 16.5 0.00 0.20 0.00 89 999.2
20260509203049 58 248 5.2 16.5 0.00 0.20 0.00 89 999.2
20260509202539 58 298 11.3 17.4 0.00 0.20 0.00 89 999.1
20260509202039 57 288 7.8 17.4 0.00 0.20 0.00 90 999.2
20260509201550 58 290 9.6 17.4 0.00 0.20 0.00 90 999.1
20260509201038 57 252 8.7 16.5 0.00 0.20 0.00 90 998.9
20260509200540 57 267 7.0 14.8 0.00 0.20 0.00 89 998.9
20260509200103 58 296 7.8 14.8 0.00 0.20 0.00 87 998.9
20260509195539 58 285 7.0 13.0 0.00 0.20 0.00 86 998.8
20260509195043 58 323 7.8 15.6 0.00 0.20 0.00 87 998.8
20260509194549 58 313 7.8 15.6 0.00 0.20 0.00 86 998.7
20260509194039 58 265 8.7 15.6 0.00 0.20 0.00 86 998.6
20260509193543 58 283 7.8 14.8 0.00 0.20 0.00 86 998.7
20260509193053 57 281 7.0 13.9 0.00 0.20 0.00 86 998.8
20260509192542 57 293 6.1 17.4 0.00 0.20 0.00 86 998.7